Theta_e
314 314 313 312 313 313 312 313 313 312 312 312 312 312 312 312 312 312 312 312 312 312 312 313 313 313 313 314 314 314 315 315 315 315 316 316 316 316 316 316 316 316 317 317 318 319 319 320 320 319 319 320 321 322 321 323 324 324 323 322 321 321 320
314 313 313 313 313 313 312 312 312 312 312 312 312 312 312 311 311 312 312 312 312 312 312 312 312 313 313 313 314 314 314 314 314 314 314 315 315 315 316 315 316 316 316 316 316 317 318 319 319 318 318 318 319 320 320 321 321 322 323 323 321 320 320
313 313 313 313 313 313 312 312 312 312 312 312 312 312 311 312 312 312 312 312 312 311 311 312 312 312 313 312 312 313 313 313 313 313 314 314 314 314 314 314 315 315 316 316 316 316 317 318 318 318 317 317 318 318 319 320 320 320 321 322 321 322 322
313 313 313 313 313 313 313 312 312 312 312 312 312 312 311 311 311 312 311 311 311 311 310 311 311 312 312 312 312 312 312 312 313 312 313 313 313 313 313 313 313 314 314 315 315 315 316 317 317 317 317 317 317 318 318 318 319 319 319 320 320 322 322
313 312 313 313 312 313 313 312 312 312 312 312 312 311 312 312 312 311 311 311 311 310 310 310 310 311 311 312 311 311 311 312 312 312 312 313 312 312 312 313 313 313 313 314 314 314 314 315 316 316 316 315 315 316 317 317 317 318 318 319 319 320 322
313 312 313 312 312 312 312 312 311 311 311 311 311 311 311 311 311 311 311 311 310 310 310 309 309 310 311 311 311 311 311 311 312 312 312 312 312 312 312 312 312 312 312 313 313 313 313 314 314 314 314 314 315 314 315 315 316 316 317 318 319 320 321
312 313 313 312 311 311 311 310 310 310 310 310 311 311 310 310 310 310 310 310 310 309 309 309 309 310 310 311 311 311 311 311 311 312 312 312 312 312 312 312 312 312 312 312 312 313 313 313 313 313 313 314 314 314 314 314 314 315 315 316 317 319 321
311 312 312 311 310 310 310 310 310 310 309 309 309 309 308 309 309 309 309 309 309 308 309 309 310 311 310 310 311 311 311 311 311 311 311 311 311 311 311 311 311 312 312 312 312 312 312 312 312 313 313 313 314 314 314 314 313 313 314 315 316 317 319
310 310 310 310 310 310 311 310 310 310 308 307 306 305 305 307 307 307 308 308 307 307 308 309 310 311 310 310 311 310 311 311 310 310 311 311 311 311 311 311 311 311 311 311 311 311 311 312 312 312 312 312 313 313 313 313 313 313 313 314 315 316 317
309 308 308 308 309 311 311 311 310 309 307 305 305 305 305 306 306 305 306 307 306 307 308 308 309 310 309 310 310 310 310 310 310 310 310 310 310 310 311 310 310 310 311 310 311 311 311 311 311 312 312 312 312 313 313 313 313 313 313 312 313 314 316
309 308 307 307 309 310 310 309 309 308 307 306 306 306 306 307 306 305 305 306 307 307 307 307 308 308 308 309 309 310 310 310 309 310 310 310 310 310 310 310 310 310 310 310 310 310 310 310 311 311 311 311 311 312 313 312 313 313 313 312 312 313 314
310 310 309 308 309 310 309 309 309 307 306 307 306 306 307 307 306 306 306 307 307 308 308 308 307 307 308 308 309 309 309 309 309 309 309 309 309 309 309 309 309 309 309 309 309 309 310 310 310 310 310 311 311 312 312 312 312 312 312 312 312 312 313
310 311 310 309 309 310 309 309 308 307 307 307 307 307 307 307 306 306 306 307 307 308 308 308 307 307 307 308 308 309 309 309 309 308 308 308 308 308 308 308 308 308 308 309 309 309 309 309 309 309 310 310 310 311 312 311 312 312 311 312 312 311 312
310 311 310 310 310 310 309 309 308 308 308 308 307 307 307 307 306 306 306 307 307 307 308 308 307 306 307 307 307 308 308 308 308 307 307 307 307 308 308 308 308 308 308 308 308 308 308 308 309 309 309 310 310 310 311 311 311 311 310 310 311 311 312
311 311 310 310 311 310 310 309 309 308 309 309 308 308 308 307 306 307 307 307 308 308 308 308 307 307 307 307 307 307 307 308 308 308 307 307 307 307 307 308 307 307 307 307 307 307 307 308 308 308 309 309 309 310 310 311 311 311 310 310 310 311 312
312 311 311 311 311 310 310 310 309 309 309 310 309 309 308 307 308 308 308 308 308 308 308 308 308 307 307 307 307 307 307 307 308 308 308 307 307 307 307 307 307 307 307 307 307 307 307 307 307 307 308 308 308 309 309 310 310 311 311 310 309 310 311
312 312 312 311 311 310 310 310 309 309 309 309 309 309 308 308 309 309 309 309 309 309 309 309 308 308 308 308 308 308 308 308 308 308 308 308 307 307 307 307 307 307 306 307 307 307 307 307 307 307 307 307 307 308 308 309 309 310 310 310 309 310 310
313 312 312 311 311 311 311 310 310 310 310 309 310 309 309 309 309 309 310 310 309 309 309 309 309 309 309 309 308 308 308 308 308 308 308 308 308 307 307 307 307 306 306 306 306 306 306 306 306 307 307 306 307 307 307 307 308 308 309 309 309 309 309
313 312 312 311 311 311 311 311 310 310 310 310 310 309 309 309 310 310 310 310 310 310 310 310 309 309 309 309 308 308 308 308 309 308 308 308 308 307 307 307 307 306 306 306 306 306 306 306 306 306 306 306 306 306 306 306 307 307 308 308 308 308 308
312 312 312 311 311 311 311 310 310 310 310 310 310 310 310 310 310 310 310 310 310 310 310 310 310 310 310 309 309 309 308 308 309 309 308 308 308 308 307 307 307 307 307 307 306 306 306 305 305 305 305 305 305 305 305 306 306 306 306 307 307 307 307
312 311 311 311 310 310 310 310 310 310 310 310 310 310 311 311 311 311 311 310 310 310 310 310 310 310 310 309 309 309 308 308 308 308 308 308 308 308 308 307 307 307 307 306 306 306 305 304 304 304 304 304 305 305 305 304 304 305 305 306 306 307 307
312 312 311 311 311 310 311 311 311 310 310 311 311 311 311 311 311 311 311 311 310 310 310 310 310 309 308 308 308 308 307 307 307 308 308 308 308 308 308 308 308 307 307 306 306 305 304 302 302 302 303 303 303 304 304 304 304 304 304 305 305 306 306
312 312 312 311 311 311 311 311 311 311 311 311 311 311 310 310 310 310 310 310 310 310 309 309 308 307 306 306 307 307 307 306 306 306 307 307 308 308 308 308 308 308 307 306 306 305 304 303 302 302 302 302 301 302 302 303 303 303 303 304 304 305 305
312 312 311 311 311 311 311 312 312 312 311 311 310 310 310 310 310 310 310 309 309 308 307 307 306 305 304 305 305 305 305 305 305 305 306 306 307 307 308 308 308 307 307 307 306 306 305 305 303 302 302 302 301 301 301 301 302 302 303 303 303 304 305
311 311 311 311 312 312 312 312 312 312 311 311 310 310 310 310 309 308 308 307 306 306 306 305 304 304 304 304 304 303 303 302 303 303 303 304 304 304 305 306 306 306 307 307 306 305 305 305 304 303 303 303 302 302 301 301 301 301 301 302 302 302 303
311 311 312 312 312 312 312 312 311 311 310 310 309 309 308 307 307 306 306 305 305 305 305 305 304 304 304 304 304 303 302 302 301 301 300 300 300 302 304 306 306 306 306 306 306 306 305 304 304 304 303 303 303 303 302 302 301 301 301 301 302 301 301
312 312 313 313 312 312 312 311 310 309 309 308 308 307 306 306 306 305 305 305 305 306 305 304 303 303 302 301 301 300 300 300 300 299 299 299 300 303 305 306 306 306 306 305 304 305 306 305 304 304 303 303 303 303 303 302 302 302 301 301 301 301 301
313 313 313 312 312 312 311 310 308 308 307 306 306 306 306 306 305 305 305 305 304 304 302 301 299 299 299 298 299 298 298 298 297 298 301 303 304 305 305 305 306 306 305 305 303 302 304 305 304 304 303 303 303 302 303 302 302 302 302 301 301 301 303
313 313 312 311 311 311 309 307 306 305 305 305 306 306 306 306 306 305 305 303 302 301 300 298 298 298 298 298 298 298 299 298 297 300 304 306 305 306 306 306 306 305 305 305 304 303 303 304 304 303 303 302 302 302 302 303 302 302 301 300 299 301 303
312 311 310 310 310 308 306 305 304 304 304 305 306 306 306 306 305 304 304 302 300 299 298 298 298 298 298 299 299 300 300 300 300 302 305 305 305 305 305 305 305 305 304 304 303 304 304 305 304 302 301 301 301 302 302 302 303 302 301 300 300 301 302
310 309 309 308 307 305 304 303 304 304 305 305 306 306 305 304 303 303 303 301 300 298 297 298 298 296 296 296 297 299 300 301 302 303 304 304 304 304 304 304 304 304 304 304 303 303 303 304 304 302 301 301 301 301 302 302 302 302 301 301 302 302 303
308 307 306 306 304 303 302 303 304 304 303 304 304 303 303 302 302 302 302 301 300 299 300 300 299 296 295 294 293 295 298 300 300 302 302 302 303 303 304 304 304 303 304 303 303 303 302 302 302 301 300 301 302 301 302 302 302 301 301 302 302 303 303
306 306 305 304 302 301 302 302 302 300 300 301 301 301 301 302 302 301 301 301 300 301 301 300 298 297 297 295 293 293 295 296 296 296 297 298 299 301 303 303 303 303 303 302 303 303 302 302 301 300 299 301 302 302 301 302 301 301 300 300 300 301 301
306 305 303 302 300 300 300 300 298 298 299 300 300 301 301 301 301 300 300 300 300 300 300 298 297 297 297 297 296 293 291 290 290 290 291 293 296 298 300 301 303 303 303 302 303 302 302 301 301 300 299 300 300 300 300 300 300 300 300 300 300 300 301
304 302 301 300 298 298 298 297 297 299 300 300 300 300 300 300 299 299 298 298 298 298 297 296 296 296 297 297 296 292 289 287 287 287 288 289 291 294 296 297 300 302 302 302 302 302 302 301 301 300 300 300 300 299 299 299 300 300 300 300 301 301 301
301 300 299 298 297 297 298 297 298 300 300 300 300 300 299 299 298 297 297 297 296 296 295 295 295 295 295 295 292 289 288 288 288 287 287 287 288 290 294 296 296 297 298 298 299 300 300 301 300 300 300 300 299 299 299 300 300 301 301 301 301 301 301
299 298 297 297 298 298 299 299 299 300 300 299 299 298 297 297 296 296 296 295 294 294 294 295 294 294 293 292 290 289 289 290 290 289 289 289 288 289 291 291 291 291 292 293 295 298 299 299 300 300 300 300 299 299 300 300 300 301 301 301 302 302 302
Wind_Speed
12 11 10 11 10 10 11 10 10 10 10 10 10 10 10 11 11 10 10 10 10 10 10 10 11 11 11 11 11 11 10 10 10 11 11 12 12 11 12 13 13 13 13 14 15 16 19 22 23 20 17 17 17 17 18 17 17 18 18 18 18 18 18
11 10 9 10 10 10 10 10 9 9 10 10 10 10 10 10 10 10 9 10 10 11 10 10 11 11 11 11 11 11 10 10 10 10 11 11 11 12 13 14 14 14 14 13 14 14 16 19 22 21 21 21 21 19 18 18 18 18 17 18 19 19 19
10 10 9 9 10 9 10 10 10 9 9 9 10 10 9 10 10 9 9 10 11 11 11 11 11 11 11 11 11 11 10 10 10 10 10 11 11 12 13 14 14 14 14 14 14 14 15 17 19 21 22 23 23 22 20 19 19 18 18 19 19 17 16
11 10 10 10 10 10 9 9 9 9 9 9 10 9 9 10 10 9 10 10 11 11 11 11 11 11 11 10 10 10 10 10 10 10 10 10 11 12 12 12 13 13 14 14 15 15 16 17 19 21 21 22 24 24 22 20 20 20 20 19 18 17 16
11 11 10 10 10 10 9 9 9 9 9 9 9 9 9 10 10 10 11 11 11 12 12 12 11 11 10 9 10 10 10 10 10 10 10 10 11 11 12 12 12 13 13 13 14 15 15 16 18 21 22 21 23 24 24 23 22 21 20 19 18 17 16
10 11 11 10 10 9 9 10 10 10 10 10 10 10 10 10 11 11 12 12 12 13 13 12 11 10 10 9 9 10 10 10 10 10 10 10 11 11 12 12 12 13 13 13 14 14 15 16 17 19 21 21 22 24 24 23 23 21 20 19 17 16 15
11 11 10 10 10 9 9 9 10 10 10 10 10 10 11 11 11 11 11 12 12 13 12 12 11 10 10 9 9 9 10 10 11 11 11 11 11 11 12 12 12 13 13 13 14 14 15 16 17 19 21 21 22 23 23 23 22 22 21 19 18 17 15
11 11 10 9 9 9 9 9 9 10 10 10 10 10 11 11 11 11 10 11 12 12 11 11 10 9 10 9 9 10 10 10 11 12 12 12 12 12 13 12 13 13 13 14 14 15 15 16 17 18 20 22 23 23 22 23 23 22 21 20 19 18 16
12 12 10 9 9 9 9 9 9 10 11 12 11 12 13 12 12 12 11 10 12 12 11 10 9 8 10 10 10 11 11 11 12 12 12 12 13 13 13 13 13 14 14 14 15 16 16 16 17 17 18 19 21 23 23 23 23 22 21 21 21 20 18
13 15 13 10 8 8 8 8 9 9 11 13 14 15 15 14 15 16 14 13 14 13 12 11 10 9 11 11 11 12 11 12 13 12 12 13 13 13 13 13 13 14 14 14 15 16 17 17 17 17 18 18 19 21 23 24 24 24 24 23 22 21 20
13 14 14 12 9 8 8 8 9 10 12 13 14 15 15 14 16 17 17 15 14 14 14 14 13 12 12 12 12 11 11 13 13 13 13 13 13 13 13 14 14 14 14 15 16 16 16 17 17 17 17 17 18 19 21 24 25 24 24 25 24 23 23
10 11 12 12 10 8 8 8 9 10 11 12 13 15 14 14 15 16 16 14 13 13 14 14 14 14 13 13 12 12 12 13 13 13 13 13 13 13 13 14 14 14 15 16 16 17 16 16 17 17 17 17 18 19 21 24 26 26 25 26 27 25 24
8 9 11 12 10 8 8 8 9 10 11 11 12 14 13 14 15 16 15 14 13 14 14 14 16 16 15 13 13 13 13 13 13 13 13 13 13 13 13 14 14 14 15 16 16 17 17 17 17 17 17 17 18 19 20 22 26 29 27 26 28 28 25
8 8 9 10 9 8 8 8 9 10 10 10 11 12 12 13 16 16 16 15 14 15 14 13 16 18 17 16 15 15 14 14 14 14 14 14 13 13 14 14 14 14 14 15 16 16 16 16 17 17 17 17 18 19 19 21 25 29 30 28 27 27 25
8 8 9 9 8 8 8 9 9 10 10 10 11 11 12 14 16 16 16 16 15 15 14 15 18 21 20 19 17 17 16 15 14 15 15 15 15 15 15 15 15 15 15 16 17 16 16 16 17 17 17 17 18 19 19 20 23 27 30 31 29 26 25
7 8 9 9 8 9 9 9 10 10 10 10 11 11 13 14 15 15 15 16 15 15 15 16 20 23 23 22 20 18 16 15 15 16 16 17 17 17 18 18 17 17 17 18 18 17 17 16 16 17 17 18 18 20 20 20 22 24 27 30 30 28 26
7 8 9 9 9 10 10 10 10 11 11 12 12 13 14 15 15 15 16 16 16 16 16 17 19 20 21 21 20 18 17 16 16 17 17 18 19 20 20 21 21 20 19 19 19 19 18 17 17 18 18 19 19 19 20 20 21 23 25 27 29 29 28
8 9 10 10 10 10 11 11 11 12 13 13 14 15 16 16 16 16 16 17 18 18 19 19 20 20 21 20 20 19 19 19 19 19 19 20 21 22 22 23 24 24 23 22 21 20 19 18 18 19 19 20 20 19 20 21 22 23 24 26 27 29 28
10 10 10 11 12 11 11 12 13 13 14 14 16 17 18 18 18 18 18 19 21 21 22 23 23 23 24 23 22 22 22 22 22 22 22 22 23 24 25 25 26 26 26 25 23 22 21 20 20 20 20 21 20 20 21 21 22 23 23 25 26 28 28
11 11 12 12 13 13 13 13 14 14 15 16 17 18 19 20 20 21 22 23 24 24 25 26 26 26 26 25 24 24 24 24 24 25 26 26 25 26 27 27 27 27 27 26 25 24 22 21 21 20 20 20 20 21 22 21 22 22 23 24 24 26 27
11 12 13 14 14 14 14 15 15 16 18 19 20 21 21 22 23 24 25 26 26 27 27 28 29 31 31 29 27 27 26 26 27 27 28 28 28 28 29 29 29 29 29 28 28 27 25 24 23 22 21 20 20 21 22 23 23 23 22 23 23 24 25
12 13 13 14 15 15 16 17 17 19 21 22 24 24 25 26 28 29 29 29 28 28 29 31 32 34 34 32 30 30 30 30 30 30 30 29 29 29 30 31 31 31 31 31 31 31 30 28 27 26 24 22 21 21 22 22 23 23 23 22 23 23 24
11 13 14 15 16 17 18 19 20 22 25 27 28 30 31 33 34 34 32 31 31 31 32 33 32 31 32 32 32 32 33 34 34 33 32 32 32 32 32 32 33 34 33 33 35 35 33 31 30 28 27 26 24 23 23 23 22 22 23 23 23 23 24
12 13 14 16 17 18 20 22 24 26 29 32 33 34 35 35 34 33 32 31 31 32 32 32 31 31 31 32 31 31 32 33 34 34 35 36 37 36 34 33 33 34 33 32 34 35 33 31 30 30 30 28 27 26 26 25 22 21 22 23 24 24 24
13 14 16 18 19 22 24 26 28 29 31 33 34 33 33 33 32 32 32 31 31 31 31 31 31 32 31 31 31 31 32 33 33 34 35 37 39 39 37 34 33 32 31 31 33 35 35 32 29 29 30 29 28 27 26 25 24 23 23 24 25 25 25
14 16 18 21 24 27 29 28 28 29 30 31 31 31 32 32 31 32 32 32 31 30 30 32 34 34 34 35 35 35 36 36 36 37 38 38 39 39 37 35 33 31 31 32 33 35 36 34 29 28 29 29 27 25 24 25 26 28 27 25 25 26 25
17 20 22 24 27 28 26 25 27 28 29 31 31 31 31 30 31 32 32 31 30 30 32 36 38 38 38 38 38 38 39 40 40 41 41 40 38 36 35 34 33 33 32 33 34 34 33 32 30 28 28 27 26 26 26 26 26 28 28 26 25 26 25
20 22 24 25 24 22 21 24 27 29 30 31 30 29 28 28 30 31 32 32 33 34 36 39 39 38 38 38 38 39 39 40 41 40 38 35 33 33 33 33 34 34 33 33 35 35 34 33 32 29 27 26 28 28 28 27 27 28 28 28 28 27 25
21 23 23 21 19 19 23 27 29 30 30 29 27 26 25 27 29 31 33 35 36 35 35 37 37 36 35 36 36 37 38 38 37 35 32 30 29 30 31 31 32 33 33 32 33 35 35 35 33 31 28 28 30 31 29 29 28 28 29 30 28 27 26
20 21 20 18 19 23 27 29 28 28 28 26 25 25 25 26 29 29 31 33 34 35 36 36 36 36 35 36 37 37 38 37 35 32 30 29 30 30 30 31 31 33 34 34 32 31 31 32 32 31 31 31 32 32 31 30 28 28 30 30 28 27 27
18 19 18 20 24 27 28 27 26 26 27 26 25 24 24 26 28 28 28 30 34 37 37 34 35 37 37 37 37 37 38 36 33 30 30 31 32 32 32 31 31 33 33 34 33 30 28 29 31 31 32 33 33 33 34 32 29 28 29 28 27 28 28
17 20 22 24 27 28 26 25 25 27 29 27 25 25 27 27 28 27 28 30 33 34 31 30 32 35 36 38 37 36 36 35 32 30 31 33 35 36 36 34 34 34 33 33 33 32 28 27 29 30 30 30 32 35 35 31 27 27 28 27 26 27 27
20 23 25 26 27 27 25 25 27 30 30 28 27 28 29 28 27 27 28 29 29 28 27 28 31 31 33 37 37 34 34 36 36 36 37 38 37 37 38 38 37 36 35 33 33 32 29 27 29 31 31 30 32 35 34 30 27 27 28 29 29 29 28
23 25 26 26 27 27 26 27 30 30 28 28 27 27 27 26 26 27 28 27 25 24 25 28 30 29 31 34 35 35 36 38 39 41 43 42 37 35 37 37 37 36 35 33 32 32 30 29 30 31 32 33 33 33 33 32 30 29 29 29 29 29 28
25 26 26 27 27 27 27 29 29 27 26 27 26 25 26 26 26 27 27 25 24 24 26 28 28 28 29 32 35 37 37 37 36 38 41 42 40 38 37 37 35 35 35 34 33 32 31 30 31 32 32 33 32 31 32 32 30 29 30 29 27 27 26
25 26 27 27 28 26 27 29 27 23 24 26 25 25 26 26 26 27 26 25 26 26 26 27 26 27 30 34 36 38 39 37 35 35 36 40 41 40 37 36 35 36 37 36 34 33 33 35 37 35 32 30 31 30 30 30 30 30 31 28 25 24 23
24 26 26 26 25 24 24 26 25 22 23 24 24 25 26 26 26 26 26 26 27 27 27 26 25 26 29 33 37 39 40 40 38 36 36 36 37 37 37 38 40 42 42 40 35 32 33 34 35 36 33 31 30 29 28 29 31 31 28 23 19 19 19
Wind_Direction
47 48 42 39 41 38 35 32 29 27 27 26 22 21 19 14 13 14 12 11 7 3 359 354 351 350 349 346 346 347 343 340 336 333 332 332 332 327 324 324 319 312 307 301 300 301 303 304 306 307 306 306 306 304 304 304 303 303 300 294 290 285 280
42 41 36 32 30 27 22 20 21 19 18 20 16 15 15 11 11 12 10 6 2 2 359 350 349 348 348 349 349 348 346 343 340 335 332 331 329 326 325 326 323 318 314 308 304 302 300 302 304 306 308 308 307 305 304 304 302 302 301 300 298 293 286
35 31 26 23 18 15 12 10 11 11 9 9 8 9 10 8 8 8 7 3 357 358 356 349 348 347 347 349 347 346 345 342 339 335 332 331 328 326 327 327 325 324 322 319 316 312 308 304 303 303 306 308 307 306 306 306 304 301 298 298 300 297 287
29 23 18 15 11 9 10 9 8 6 5 4 3 4 4 4 3 2 0 357 352 352 352 348 345 343 344 347 345 343 344 342 340 338 335 332 330 330 331 330 327 327 325 322 320 318 313 309 306 304 305 306 305 304 305 306 304 303 300 297 295 292 290
23 17 12 9 7 9 10 9 7 5 3 2 0 359 358 358 357 354 354 352 347 347 346 345 343 340 340 343 343 342 344 342 339 340 338 334 335 334 332 330 328 326 324 321 320 318 315 312 308 305 305 307 305 303 304 306 304 302 301 299 295 291 292
13 10 9 8 7 9 8 7 6 5 2 359 358 357 355 355 353 349 347 347 344 342 340 340 343 342 341 343 340 337 339 339 336 339 337 332 333 332 328 327 325 322 321 319 318 317 315 314 311 308 308 309 307 304 304 306 305 302 300 300 298 295 293
7 4 4 6 8 9 8 6 6 5 4 1 357 354 352 351 349 346 346 343 340 341 340 339 345 348 346 347 341 334 336 334 330 332 331 327 327 326 323 323 320 318 317 316 316 314 314 313 311 310 310 309 306 304 305 305 305 303 300 299 299 299 298
9 4 1 2 6 8 8 6 7 6 5 5 0 358 359 357 353 351 350 343 341 346 345 345 351 350 348 351 343 336 336 331 326 327 325 322 322 321 319 319 317 316 315 313 312 310 310 309 307 307 309 309 308 307 307 306 305 303 301 301 299 299 301
13 11 5 1 2 5 8 7 9 8 10 15 15 16 18 14 9 8 2 354 356 0 356 356 358 348 347 350 342 338 336 330 328 327 324 322 320 318 318 319 317 315 314 312 309 308 307 305 303 303 304 305 307 307 308 307 305 303 304 305 302 299 300
17 17 13 8 6 4 2 5 10 13 18 25 26 26 27 23 21 22 18 11 10 11 6 6 4 351 348 344 337 336 334 330 332 330 325 323 321 319 318 318 317 314 313 310 308 308 308 305 303 302 301 301 301 303 303 303 303 302 303 305 302 299 300
17 18 16 15 13 6 1 6 15 20 24 27 27 28 27 22 21 24 23 18 13 10 8 7 4 356 351 344 337 335 330 328 331 329 326 323 320 319 317 316 317 315 312 309 310 310 309 307 306 304 301 300 298 296 296 298 298 298 301 302 300 298 299
11 12 13 16 11 4 1 3 11 18 23 24 24 27 26 21 21 22 20 15 9 5 3 1 359 355 350 345 340 335 329 327 328 327 325 323 321 319 317 316 316 314 311 309 309 310 308 306 306 304 302 300 297 293 293 295 294 294 298 299 298 299 299
0 1 7 13 9 360 357 358 2 9 15 16 18 24 25 21 21 19 16 11 5 1 359 355 354 354 350 343 338 333 330 328 326 325 323 322 322 319 318 319 317 314 311 309 307 306 305 305 303 302 301 301 299 296 295 294 293 293 295 296 297 299 300
348 349 353 3 0 352 349 350 355 1 5 5 8 15 15 12 13 11 8 5 0 357 355 349 349 352 350 344 339 335 331 327 324 321 319 319 319 316 316 317 317 316 313 310 311 309 305 303 302 301 300 300 299 298 298 296 294 295 296 295 297 299 300
336 337 340 347 346 340 338 338 346 355 354 350 355 0 359 358 360 358 355 353 349 346 344 341 343 346 344 340 336 331 327 323 317 315 313 313 312 310 310 311 312 313 312 311 313 311 307 304 302 301 299 299 298 297 297 297 296 297 297 297 300 301 300
324 331 333 333 331 330 329 329 335 342 339 337 339 340 341 343 343 340 339 337 332 329 329 329 334 337 335 330 326 322 319 315 311 310 309 308 308 306 305 306 306 308 308 309 309 309 308 305 303 302 300 299 298 297 297 297 296 297 297 298 301 301 300
314 327 326 323 325 324 321 322 325 327 329 329 326 324 327 328 326 323 323 322 319 316 315 315 318 321 320 319 316 312 309 307 305 305 304 305 307 306 305 303 302 303 304 303 305 306 305 304 303 303 302 300 299 298 298 297 296 296 296 297 298 298 299
309 320 322 321 323 321 318 318 319 319 321 320 319 320 320 318 317 315 313 315 316 313 311 310 309 308 308 308 305 301 300 299 299 300 301 303 306 306 305 302 300 299 299 298 300 301 302 302 303 302 301 300 299 299 298 297 296 295 294 295 296 297 297
308 314 317 320 322 321 318 315 315 314 312 311 314 317 317 314 311 309 310 313 314 312 310 309 307 306 306 304 300 297 294 293 294 296 297 299 302 304 303 302 300 297 295 294 295 297 299 301 302 300 299 298 299 299 298 296 295 294 293 293 294 296 296
306 310 314 319 322 321 316 314 313 311 309 310 311 311 312 313 309 307 309 310 310 310 309 307 305 304 304 302 299 295 292 290 290 292 294 294 296 298 298 299 299 296 294 292 291 291 293 296 298 298 296 297 298 299 298 297 296 294 293 292 291 292 293
305 308 312 318 322 321 318 315 312 310 311 313 313 311 311 311 308 307 307 307 307 306 305 303 303 303 305 304 298 293 291 289 288 288 289 289 290 292 294 295 295 294 292 288 285 285 287 290 294 295 294 294 295 297 298 297 296 293 292 291 290 290 291
304 307 311 315 317 318 317 315 312 311 313 313 313 312 310 309 308 307 306 305 305 304 303 304 305 308 311 311 305 295 289 287 287 286 286 286 286 288 290 291 291 292 290 285 283 286 288 288 290 293 295 294 292 294 296 295 293 292 291 290 289 290 290
303 307 311 312 314 315 316 314 311 310 312 312 311 310 309 309 309 308 308 307 307 307 307 308 311 314 316 317 313 305 294 288 287 286 285 287 288 289 289 290 291 292 291 287 284 288 291 289 287 290 293 293 291 291 293 293 290 288 289 288 287 288 288
304 308 311 313 315 315 314 312 310 310 312 312 311 310 310 311 311 311 312 312 312 312 313 313 315 317 318 317 317 313 306 298 294 291 289 290 292 293 291 290 291 291 289 285 282 285 289 288 286 288 291 292 292 290 290 292 290 286 286 286 285 285 284
308 311 313 314 314 313 312 313 312 312 312 312 313 314 314 314 315 315 315 316 316 316 316 315 316 317 317 316 315 315 311 307 302 298 295 293 294 295 293 292 291 290 287 284 282 283 286 285 281 283 287 291 292 290 288 292 293 290 287 284 282 282 280
311 312 313 313 313 314 314 315 314 314 315 316 317 318 318 318 317 318 318 319 319 318 316 316 316 315 315 314 313 312 308 306 303 300 297 296 295 294 293 293 292 289 288 287 285 284 284 282 277 276 281 288 291 290 288 291 293 293 291 284 279 280 281
312 313 314 315 316 316 317 317 317 319 320 320 320 320 320 320 320 321 322 321 320 319 317 316 317 316 316 314 312 309 306 304 302 301 300 299 296 295 294 293 292 291 290 288 286 284 281 277 272 271 274 279 284 285 285 286 286 288 290 288 283 283 284
313 315 317 318 319 319 320 320 322 322 322 322 322 322 322 322 321 322 322 321 320 320 319 319 320 321 321 319 315 311 308 306 304 302 300 298 297 295 294 295 294 293 292 290 289 288 283 277 272 270 270 275 280 282 282 280 278 280 285 288 287 284 281
316 317 318 320 322 322 322 324 324 324 324 324 324 322 322 321 322 322 321 321 322 322 322 323 325 326 325 322 319 317 315 313 310 303 297 294 295 294 294 295 294 293 293 291 291 290 288 283 276 271 269 274 280 282 281 278 277 279 284 288 287 282 277
317 317 321 324 325 325 326 327 327 325 325 326 324 322 322 322 322 322 321 322 323 324 326 328 328 329 327 324 323 322 322 321 316 307 298 295 295 294 293 293 292 293 294 294 294 295 291 283 277 273 272 274 278 281 281 279 278 281 286 290 288 283 279
319 323 328 329 327 328 329 329 328 326 326 326 324 323 323 322 323 323 322 323 325 327 330 332 331 331 330 327 325 324 324 324 321 313 306 300 296 294 294 294 292 292 294 296 298 301 296 283 276 274 274 276 278 281 282 281 279 279 284 287 286 284 284
326 330 332 330 330 331 331 329 327 326 326 326 325 324 324 324 325 325 325 327 329 331 333 333 333 334 331 327 326 324 323 324 324 319 313 306 300 295 293 293 292 292 294 297 299 301 299 291 281 274 273 276 279 281 283 283 279 279 282 283 281 282 284
333 333 332 332 331 331 331 328 327 327 327 328 327 327 328 329 328 328 329 330 331 331 331 331 334 334 327 323 326 326 323 323 322 319 314 312 308 302 296 293 291 291 293 295 295 297 297 291 283 278 276 277 277 280 284 282 276 277 280 280 279 280 282
334 334 333 332 331 331 330 328 329 330 330 331 332 331 332 332 330 330 332 332 332 331 330 331 333 331 322 319 322 325 324 322 319 316 314 313 312 308 303 298 294 293 292 288 287 291 293 291 286 281 279 278 279 282 283 280 277 276 276 277 278 280 283
335 335 333 332 331 331 330 330 333 335 334 335 336 334 334 334 333 333 334 334 334 332 330 331 333 329 320 315 315 320 325 325 320 316 314 313 311 309 307 304 299 295 293 288 284 283 282 279 277 276 276 278 281 283 280 276 274 272 271 271 274 278 283
336 335 333 332 333 334 334 336 339 340 337 338 338 336 337 338 336 335 335 335 335 334 332 333 333 327 318 312 315 324 331 332 329 324 318 313 311 309 308 305 300 295 293 293 290 284 277 273 273 274 276 277 278 278 275 270 266 267 268 267 268 276 282
336 334 334 335 338 340 341 342 343 343 341 341 340 339 340 340 338 337 337 336 336 336 335 334 333 329 321 318 324 332 335 335 334 331 325 320 316 311 306 302 299 295 295 295 293 288 286 284 282 280 277 275 276 273 265 262 263 265 266 263 264 275 283